This demonstration page uses our WeatherBlox Daily Observations layout. Learn more.

Left ArrowRight Arrow

44.8408, -93.29828

Hourly Observations for September 28, 2020

Temp ( °F °C ) Dew Point ( °F °C ) Humidity (%) Winds ( mph kmh ) Pressure ( in mb ) Visibility ( mi km ) Precip ( " mm )
12:53 am 00:53 Partly Cloudy 52 11.1 49 9.4 89 89 WNW 8 13 29.80 1009 10 16 0.00 0.00
1:53 am 01:53 Cloudy 53 11.7 49 9.4 86 86 WNW 9 15 29.81 1009 10 16 0.00 0.00
2:53 am 02:53 Cloudy 53 11.7 49 9.4 86 86 WNW 8 13 29.81 1010 10 16 0.00 0.00
3:53 am 03:53 Cloudy 53 11.7 48 8.9 83 83 NW 8 13 29.80 1009 10 16 0.00 0.00
4:53 am 04:53 Cloudy 53 11.7 47 8.3 80 80 NNW 13 20 29.82 1010 10 16 0.00 0.00
5:53 am 05:53 Cloudy 52 11.1 46 7.8 80 80 NNW 13 20 29.83 1010 10 16 0.00 0.00
6:06 am 06:06 Cloudy 52 11.1 46 7.8 80 80 NNW 13 20 29.84 1010 10 16 0.00 0.00
6:53 am 06:53 Cloudy with Light Rain 49 9.4 48 8.9 97 97 NNW 14 22 29.84 1011 8 13 0.02 0.51
7:53 am 07:53 Mostly Cloudy 50 10 46 7.8 86 86 NW 12 19 29.85 1011 10 16 0.00 0.00
8:53 am 08:53 Mostly Cloudy 52 11.1 46 7.8 80 80 NW 14 22 29.85 1011 10 16 0.00 0.00
9:31 am 09:31 Mostly Cloudy 52 11.1 44 6.7 75 75 NNW 18 30 29.88 1012 10 16 0.00 0.00
9:53 am 09:53 Mostly Cloudy 53 11.7 44 6.7 72 72 NNW 15 24 29.88 1012 10 16 0.00 0.00
10:01 am 10:01 Cloudy 53 11.7 44 6.7 72 72 NW 16 26 29.87 1012 10 16 0.00 0.00
10:53 am 10:53 Cloudy 54 12.2 43 6.1 67 67 NW 21 33 29.88 1012 10 16 0.00 0.00
11:53 am 11:53 Cloudy 54 12.2 43 6.1 67 67 NW 16 26 29.88 1012 10 16 0.00 0.00
12:53 pm 12:53 Cloudy 56 13.3 43 6.1 62 62 NNW 14 22 29.87 1012 10 16 0.00 0.00
1:53 pm 13:53 Cloudy with Light Rain 53 11.7 44 6.7 72 72 NW 17 28 29.86 1011 10 16 0.00 0.00
2:53 pm 14:53 Mostly Cloudy 53 11.7 45 7.2 74 74 NNW 14 22 29.86 1011 10 16 0.00 0.00
3:53 pm 15:53 Mostly Cloudy 55 12.8 45 7.2 69 69 NNW 13 20 29.86 1011 10 16 0.00 0.00
4:53 pm 16:53 Mostly Cloudy 56 13.3 42 5.6 60 60 NNW 14 22 29.86 1011 10 16 0.00 0.00
5:53 pm 17:53 Cloudy with Light Rain 53 11.7 45 7.2 74 74 NW 6 9 29.87 1012 8 13 0.00 0.00
6:53 pm 18:53 Mostly Cloudy with Light Rain 52 11.1 44 6.7 75 75 NW 12 19 29.89 1012 10 16 0.00 0.00
7:53 pm 19:53 Cloudy 50 10 47 8.3 89 89 NW 5 7 29.91 1013 10 16 0.00 0.00
8:53 pm 20:53 Cloudy 51 10.6 45 7.2 80 80 NNW 14 22 29.92 1013 10 16 0.00 0.00
9:53 pm 21:53 Mostly Cloudy 50 10 46 7.8 86 86 NW 7 11 29.91 1013 10 16 0.00 0.00
10:53 pm 22:53 Cloudy 50 10 45 7.2 83 83 WNW 9 15 29.91 1013 10 16 0.00 0.00
11:53 pm 23:53 Cloudy 51 10.6 45 7.2 80 80 WNW 9 15 29.91 1013 10 16 0.00 0.00

Powered by AerisWeather